Regional Weather Roundup
Issued by NWS

Home | Current Version | Previous Version | Text Only | Print | Product List | Glossary On
Versions: 1 2 3 4 5 6 7 8 9 10 11 12 13 14 15 16 17 18 19 20 21 22 23 24 25 26 27 28 29 30 31 32 33 34 35 36 37 38 39 40 41 42 43 44 45 46 47 48 49 50
000
ASUS43 KMKX 251711
RWRWI

WISCONSIN REGIONAL WEATHER ROUNDUP
NATIONAL WEATHER SERVICE MILWAUKEE/SULLIVAN WI
1100 AM CST SAT FEB 25 2017

NOTE: "FAIR" INDICATES FEW OR NO CLOUDS BELOW 12,000 FEET WITH NO
SIGNIFICANT WEATHER AND/OR OBSTRUCTIONS TO VISIBILITY.

WIZ001-002-006>008-014>016-023>028-251800-
NORTHWEST WISCONSIN

CITY           SKY/WX    TMP DP  RH WIND       PRES   REMARKS
SUPERIOR ARPT  SUNNY     20   5  51 NW10      29.87F WCI   9
ASHLAND        CLOUDY    17   8  67 W16       29.81F WCI   2
HAYWARD        SUNNY     18   2  49 W10G21    29.82S WCI   6
SIREN          SUNNY     21   1  41 NW14G24   29.88F WCI   8
CUMBERLAND     SUNNY     19   3  49 NW16      29.85S WCI   5
RICE LAKE      SUNNY     19   4  51 NW7G16    29.88R WCI  10
CHETEK         SUNNY     19   4  53 NW9       29.86S WCI   7
LADYSMITH      MOSUNNY   16   6  63 NW14      29.83S WCI   2
EAU CLAIRE     MIX PCPN  18   3  52 NW14      29.87F WCI   4
MENOMONIE      SUNNY     19   4  51 W12       29.90S WCI   7
NEW RICHMOND   SUNNY     23   4  45 NW15      29.90S WCI  10
OSCEOLA        SUNNY     24   6  47 NW12      29.94S WCI  12
$$

WIZ003>005-009-010-017-018-251800-
NORTH CENTRAL WISCONSIN

CITY           SKY/WX    TMP DP  RH WIND       PRES   REMARKS
MANITOWISH WTR LGT SNOW  13   9  85 W14G20    29.69S WCI  -2
ARBOR VITAE    LGT SNOW  17  11  78 NW14G21     N/A  WCI   3
WOODRUFF       LGT SNOW  17  11  78 NW14G21     N/A  WCI   3
RHINELANDER    LGT SNOW  17   9  70 NW14G23   29.68R WCI   3
EAGLE RIVER    LGT SNOW  17   9  71 NW17G24   29.65R WCI   1
LAND O LAKES   LGT SNOW  17  12  80 NW15G21   29.66R WCI   2
PHILLIPS       CLOUDY    13   6  74 NW13G18   29.75S WCI  -2
TOMAHAWK       CLOUDY    15   8  75 W10G20    29.73R HAZE    WCI   2
MEDFORD        CLOUDY    13   5  70 W10G22    29.76R WCI   0
MERRILL        NOT AVBL
$$

WIZ029-030-035-036-043>047-251800-
CENTRAL WISCONSIN

CITY           SKY/WX    TMP DP  RH WIND       PRES   REMARKS
WAUSAU         FLURRIES  16   8  71 NW16G22   29.75R WCI   1
MOSINEE        LGT SNOW  16  10  79 W16G24    29.77R WCI   0
MARSHFIELD     FLURRIES  14   5  67 NW16      29.79R WCI  -2
STEVENS POINT  CLOUDY    15   7  69 W13G22    29.78R WCI   1
WAUPACA        CLOUDY    22  11  62 NW10G18   29.78R WCI  11
WAUTOMA        CLOUDY    19  10  68 NW16G25   29.81R WCI   4
WISC RAPIDS    CLOUDY    17   7  64 NW18      29.82R WCI   1
CAMP DOUGLAS   PTSUNNY   16   7  67 NW16      29.85R WCI   0
$$

WIZ011>013-019>022-031-037>040-048>050-251800-
NORTHEAST WISCONSIN

CITY           SKY/WX    TMP DP  RH WIND       PRES   REMARKS
ANTIGO         CLOUDY    16   9  74 NW20G26   29.69R WCI  -1
SHAWANO        CLOUDY    22  12  65 CALM      29.73R
OCONTO         CLOUDY    23  14  68 NW8G17    29.68S WCI  13
STURGEON BAY   LGT SNOW  23  17  78 W13       29.67R WCI  11
GREEN BAY      MIX PCPN  22  14  71 W22G28    29.72R WCI   6
MANITOWOC      FLURRIES  22  14  71 W18G25    29.73R WCI   7
APPLETON       CLOUDY    19   9  63 NW13G21   29.73R WCI   7
CLINTONVILLE   CLOUDY    21  10  63 NW18G24   29.74R WCI   6
OSHKOSH        CLOUDY    19  10  68 W14G24    29.77R WCI   6
$$

WIZ032>034-041-042-053>061-251800-
SOUTHWEST WISCONSIN

CITY           SKY/WX    TMP DP  RH WIND       PRES   REMARKS
LA CROSSE      MOSUNNY   21   9  59 NW17      29.91R WCI   7
SPARTA         PTSUNNY   19  10  66 W14G22    29.89R WCI   6
VIROQUA        PTSUNNY   19  10  67 W9        29.86R WCI   8
BOSCOBEL       SUNNY     22   9  57 NW12      29.91R WCI  10
PRAIRIE DU CHI SUNNY     21   9  58 NW14G20   29.94R WCI   8
PLATTEVILLE    MOSUNNY   20  14  78 W8G16     29.89R WCI  10
$$

WIZ056-057-062-063-064-067-068-251800-
SOUTH CENTRAL WISCONSIN

CITY           SKY/WX    TMP DP  RH WIND       PRES   REMARKS
REEDSBURG      CLOUDY    17   8  69 NW12G17   29.85S WCI   4
BARABOO/DELLS  CLOUDY    16   9  73 NW10      29.84R WCI   3
LONE ROCK      MOSUNNY   20   9  62 NW15G24   29.88S WCI   6
MINERAL POINT  PTSUNNY   21  14  73 W6        29.85R WCI  14
MADISON        FLURRIES  17   9  70 NW15G22   29.83R WCI   2
MIDDLETON      CLOUDY    20  13  75 NW9       29.84S WCI   9
WATERTOWN      FLURRIES  17  11  77 NW18G24   29.82R WCI   1
MONROE         PTSUNNY   21  14  73 W17G26    29.84R WCI   7
JANESVILLE     PTSUNNY   25  14  63 NW16G22   29.84R WCI  12
$$

WIZ051-052-058>065-066-070>072-251800-
SOUTHEAST WISCONSIN

CITY           SKY/WX    TMP DP  RH WIND       PRES   REMARKS
MILWAUKEE      FLURRIES  21  10  62 NW14G23   29.80R WCI   8
WAUKESHA       CLOUDY    16   9  73 W17G30    29.81R FOG     WCI   0
MILWAUKEE/TIMM CLOUDY    19   9  63 W21G26    29.80R WCI   3
RACINE         PTSUNNY   22  10  60 NW16G31   29.82R WCI   8
KENOSHA        CLOUDY    22  13  68 W17G26    29.81R WCI   8
FOND DU LAC    FLURRIES  19   8  62 W18G24    29.78R WCI   4
SHEBOYGAN      FLURRIES  20  12  71 W18G25    29.75R WCI   5
WEST BEND      CLOUDY    19  14  79 W8        29.78R WCI   9
JUNEAU         CLOUDY    16   9  74 NW6       29.82R WCI   7
$$

LSZ147-162-251800-
LAKE SUPERIOR

STATION/POSITION TIME  TEMP    WIND        PRES    WAVE
                       AIR SEA DIR/SP/G            HT/PER
                 (UTC) (F)     (DEG/KT/KT) (MB)    (FT/S)
DEVILS ISLAND    1600   16     300/ 13/ 15 1010.2S
PORT WING        1630   18     300/ 17/ 21 1011.2R
SAXON HARBOR     1640   18     290/ 12/ 20 1008.8S
$$

LMZ867-665-643>646-251800-
LAKE MICHIGAN

STATION/POSITION TIME  TEMP    WIND        PRES    WAVE
                       AIR SEA DIR/SP/G            HT/PER
                 (UTC) (F)     (DEG/KT/KT) (MB)    (FT/S)
CHAMBERS ISLAND  1640   23     270/  1/  2 1003.7R
NORTHPORT PIER   1620          300/  2       N/A
SISTER BAY       1605   22        CALM       N/A
KEWAUNEE LAKESHO 1648   21     290/ 13/ 20 1005.0R
SHEBOYGAN LAKESH 1700   19     280/ 13/ 17 1008.3R
PORT WASHINGTON  1630   20     280/ 10/ 15 1009.5R
MILWAUKEE LAKESH 1650   19     300/ 15/ 17   N/A
KENOSHA   LAKESH 1700   22     280/ 14/ 19 1009.8
$$

TC  - TEMPERATURE IN CELSIUS
VSB - VISIBILITY IN STATUTE MILES
WCI - WIND CHILL INDEX
HX  - HEAT INDEX




USA.gov is the U.S. government's official web portal to all federal, state and local government web resources and services.